Regional Weather Roundup
Issued by NWS Cleveland, OH

Home | Current Version | Previous Version | Text Only | Print | Product List | Glossary Off
Versions: 1 2 3 4 5 6 7 8 9 10 11 12 13 14 15 16 17 18 19 20 21 22 23 24 25 26 27 28 29 30 31 32 33 34 35 36 37 38 39 40 41 42 43 44 45 46 47 48 49 50

000
ASUS41 KCLE 170000
RWRCLE
OHIO REGIONAL WEATHER ROUNDUP
NATIONAL WEATHER SERVICE WILMINGTON, OH
800 PM EDT WED AUG 16 2017

NOTE: "FAIR" INDICATES FEW OR NO CLOUDS BELOW 12,000 FEET WITH NO
SIGNIFICANT WEATHER AND/OR OBSTRUCTIONS TO VISIBILITY.

OHZ001>008-015>018-024>027-034-035-043-044-170100-
   NORTHWEST OHIO

CITY           SKY/WX    TMP DP  RH WIND       PRES   REMARKS
DEFIANCE       MOCLDY    82  66  58 E8        29.96S
FINDLAY        FAIR      83  66  56 E8        29.97R
TOLEDO EXPRESS FAIR      78  65  63 E6        29.98R
TOLEDO EXEC    FAIR      77  62  59 E7        30.00R
LIMA           FAIR      79  70  74 E6        29.98R
$$

OHZ009>014-019>023-028>033-038-089-170100-
   NORTHEAST OHIO

CITY           SKY/WX    TMP DP  RH WIND       PRES   REMARKS
CLE-HOPKINS    FAIR      80  57  45 NE10      30.03S
CLE-LAKEFRONT  FAIR      75  65  70 NE8       30.00S
CUY CO. ARPT   CLEAR     77  59  53 E8        30.04R
LORAIN-ELYRIA  FAIR      75  54  47 E6        30.02S
ASHTABULA      FAIR      71  60  68 CALM      30.05S
AKRON-CANTON   FAIR      79  60  52 E7        30.03R
WOOSTER        NOT AVBL
MANSFIELD      FAIR      78  66  66 SE6       30.02S
YOUNGSTOWN     FAIR      76  58  53 NE5       30.05R
$$

OHZ042-051>053-060>062-070>072-077>081-170100-
  SOUTHWEST OHIO

CITY           SKY/WX    TMP DP  RH WIND       PRES   REMARKS
CINC-COVINGTON MOCLDY    83  74  74 S6        29.98R
CINC-LUNKEN    FAIR      83  74  74 S5        29.97R
HAMILTON       MOCLDY    88  69  53 W6        29.97R HX  92
DAYTON         NOT AVBL
WRIGHT-PAT AFB NOT AVBL
DAYTON GENERAL FAIR      83  68  60 E3        29.98R
WILMINGTON     FAIR      81  73  76 S3        29.99R
$$

OHZ036-037-039>041-045>050-054>059-063>069-073>076-082>088-170100-
  CENTRAL AND SOUTHEAST OHIO

CITY           SKY/WX    TMP DP  RH WIND       PRES   REMARKS
COLUMBUS       MOCLDY    83  72  69 E9        29.98R
OSU AIRPORT    FAIR      84  68  58 SW5       29.99R
BOLTON FIELD   NOT AVBL
RICKENBACK AFB NOT AVBL
NEWARK         FAIR      79  70  74 E5        30.00R
MARION         CLOUDY    81  68  64 SE6       30.00R
LANCASTER      FAIR      82  70  66 E3        30.00R
ZANESVILLE     MOCLDY    81  70  69 S8        30.01R
NEW PHILLY     FAIR      78  69  73 CALM      30.02S
$$



USA.gov is the U.S. government's official web portal to all federal, state and local government web resources and services.